Time,TemperatureF,DewpointF,PressureIn,WindDirection,WindDirectionDegrees,WindSpeedMPH,WindSpeedGustMPH,Humidity,HourlyPrecipIn,Conditions,Clouds,dailyrainin,SoftwareType,DateUTC
2013-01-13 00:03:00,39.0,38.0,30.11,SSW,213,0.0,0.0,97,0.00,,,-99.99,,2013-01-13 05:03:00,
2013-01-13 00:12:00,39.0,38.0,30.11,SSW,213,0.0,0.0,97,0.00,,,-99.99,,2013-01-13 05:12:00,
2013-01-13 00:22:00,39.0,38.0,30.12,SSW,213,2.0,-999.0,97,-99.99,,,-99.99,,2013-01-13 05:22:00,
2013-01-13 00:32:00,39.0,38.0,30.12,SSW,213,0.0,0.0,97,0.00,,,0.00,,2013-01-13 05:32:00,
2013-01-13 00:42:00,39.0,38.0,30.12,SSW,213,0.0,0.0,97,0.00,,,0.00,,2013-01-13 05:42:00,
2013-01-13 00:53:00,39.0,38.0,30.12,SW,215,2.0,6.0,97,0.00,,,0.00,,2013-01-13 05:53:00,
2013-01-13 01:03:00,39.0,38.0,30.12,SW,216,1.0,4.0,97,0.00,,,0.00,,2013-01-13 06:03:00,
2013-01-13 01:12:00,39.0,38.0,30.11,SW,216,1.0,3.0,97,0.00,,,0.00,,2013-01-13 06:12:00,
2013-01-13 01:22:00,39.0,38.0,30.11,SW,216,1.0,3.0,97,0.00,,,0.00,,2013-01-13 06:22:00,
2013-01-13 01:32:00,39.0,38.0,30.11,SW,215,3.0,6.0,97,0.00,,,0.00,,2013-01-13 06:32:00,
2013-01-13 01:42:00,39.0,38.0,30.11,SW,215,3.0,6.0,97,0.00,,,0.00,,2013-01-13 06:42:00,
2013-01-13 01:52:00,39.0,38.0,30.12,SW,216,2.0,4.0,97,0.00,,,0.00,,2013-01-13 06:52:00,
2013-01-13 02:02:00,39.0,38.0,30.13,SW,216,1.0,4.0,97,0.00,,,0.00,,2013-01-13 07:02:00,
2013-01-13 02:12:00,39.0,38.0,30.13,SW,216,1.0,4.0,97,0.00,,,0.00,,2013-01-13 07:12:00,
2013-01-13 02:22:00,39.0,38.0,30.13,SW,216,0.0,3.0,97,0.00,,,0.00,,2013-01-13 07:22:00,
2013-01-13 02:32:00,39.0,38.0,30.13,SW,216,3.0,6.0,97,0.00,,,0.00,,2013-01-13 07:32:00,
2013-01-13 02:42:00,39.0,38.0,30.13,SW,216,3.0,6.0,97,0.00,,,0.00,,2013-01-13 07:42:00,
2013-01-13 02:53:00,39.0,38.0,30.12,SW,216,4.0,6.0,97,0.00,,,0.00,,2013-01-13 07:53:00,
2013-01-13 03:02:00,39.0,38.0,30.12,SW,228,3.0,8.0,97,0.00,,,0.00,,2013-01-13 08:02:00,
2013-01-13 03:12:00,39.0,38.0,30.12,SW,228,3.0,8.0,97,0.00,,,0.00,,2013-01-13 08:12:00,
2013-01-13 03:22:00,39.0,38.0,30.12,SW,218,2.0,5.0,97,0.00,,,0.00,,2013-01-13 08:22:00,
2013-01-13 03:32:00,40.0,39.0,30.13,SW,228,1.0,5.0,97,0.00,,,0.00,,2013-01-13 08:32:00,
2013-01-13 03:42:00,40.0,39.0,30.13,SW,228,1.0,5.0,97,0.00,,,0.00,,2013-01-13 08:42:00,
2013-01-13 03:53:00,40.0,39.0,30.11,SW,223,1.0,5.0,97,0.00,,,0.00,,2013-01-13 08:53:00,
2013-01-13 04:02:00,40.0,39.0,30.11,SW,222,1.0,4.0,97,0.00,,,0.00,,2013-01-13 09:02:00,
2013-01-13 04:12:00,39.0,38.0,30.09,SW,219,0.0,3.0,97,0.00,,,0.00,,2013-01-13 09:12:00,
2013-01-13 04:22:00,39.0,38.0,30.09,SW,219,0.0,3.0,97,0.00,,,0.00,,2013-01-13 09:22:00,
2013-01-13 04:32:00,39.0,38.0,30.10,SW,218,0.0,3.0,97,0.00,,,0.00,,2013-01-13 09:32:00,
2013-01-13 04:42:00,39.0,38.0,30.10,SW,218,0.0,3.0,97,0.00,,,0.00,,2013-01-13 09:42:00,
2013-01-13 04:52:00,40.0,39.0,30.09,SW,230,2.0,7.0,97,0.00,,,0.00,,2013-01-13 09:52:00,
2013-01-13 05:02:00,39.0,38.0,30.08,SW,225,0.0,3.0,97,0.00,,,0.00,,2013-01-13 10:02:00,
2013-01-13 05:12:00,39.0,38.0,30.08,SW,225,0.0,3.0,97,0.00,,,0.00,,2013-01-13 10:12:00,
2013-01-13 05:22:00,39.0,38.0,30.05,SSE,158,2.0,5.0,97,0.00,,,0.00,,2013-01-13 10:22:00,
2013-01-13 05:32:00,39.0,38.0,30.07,SSW,208,0.0,7.0,97,0.00,,,0.00,,2013-01-13 10:32:00,
2013-01-13 05:42:00,39.0,38.0,30.07,SSW,208,0.0,7.0,97,0.00,,,0.00,,2013-01-13 10:42:00,
2013-01-13 05:53:00,40.0,39.0,30.09,SW,216,0.0,6.0,97,0.00,,,0.00,,2013-01-13 10:53:00,
2013-01-13 06:02:00,40.0,39.0,30.09,SW,216,1.0,4.0,97,0.00,,,0.00,,2013-01-13 11:02:00,
2013-01-13 06:12:00,40.0,39.0,30.09,SW,216,1.0,4.0,97,0.00,,,0.00,,2013-01-13 11:12:00,
2013-01-13 06:22:00,39.0,38.0,30.10,SW,234,0.0,4.0,97,0.00,,,0.00,,2013-01-13 11:22:00,
2013-01-13 06:32:00,39.0,38.0,30.09,SW,235,0.0,0.0,97,0.00,,,0.00,,2013-01-13 11:32:00,
2013-01-13 06:42:00,39.0,38.0,30.09,SW,235,0.0,0.0,97,0.00,,,0.00,,2013-01-13 11:42:00,
2013-01-13 06:53:00,39.0,38.0,30.09,SW,235,0.0,0.0,97,0.00,,,0.00,,2013-01-13 11:53:00,
2013-01-13 07:03:00,39.0,38.0,30.09,SW,233,1.0,3.0,97,0.00,,,0.00,,2013-01-13 12:03:00,
2013-01-13 07:12:00,39.0,38.0,30.09,SW,233,1.0,3.0,97,0.00,,,0.00,,2013-01-13 12:12:00,
2013-01-13 07:22:00,39.0,38.0,30.09,SW,225,0.0,5.0,97,0.00,,,0.00,,2013-01-13 12:22:00,
2013-01-13 07:33:00,39.0,38.0,30.11,SW,225,0.0,1.0,97,0.00,,,0.00,,2013-01-13 12:33:00,
2013-01-13 07:42:00,39.0,38.0,30.11,SW,225,0.0,1.0,97,0.00,,,0.00,,2013-01-13 12:42:00,
2013-01-13 07:53:00,40.0,39.0,30.11,SW,228,1.0,6.0,97,0.00,,,0.00,,2013-01-13 12:53:00,
2013-01-13 08:03:00,40.0,39.0,30.13,SW,236,4.0,7.0,97,0.00,,,0.00,,2013-01-13 13:03:00,
2013-01-13 08:12:00,40.0,39.0,30.13,SW,236,4.0,7.0,97,0.00,,,0.00,,2013-01-13 13:12:00,
2013-01-13 08:22:00,40.0,39.0,30.12,SW,223,2.0,-999.0,97,-99.99,,,-99.99,,2013-01-13 13:22:00,
2013-01-13 08:33:00,40.0,39.0,30.11,SW,220,1.0,-999.0,97,-99.99,,,-99.99,,2013-01-13 13:33:00,
2013-01-13 08:42:00,40.0,39.0,30.11,SW,220,1.0,-999.0,97,-99.99,,,-99.99,,2013-01-13 13:42:00,
2013-01-13 08:53:00,41.0,40.0,30.11,SW,217,2.0,-999.0,97,-99.99,,,-99.99,,2013-01-13 13:53:00,
2013-01-13 09:03:00,41.0,40.0,30.13,South,188,0.0,-999.0,97,-99.99,,,-99.99,,2013-01-13 14:03:00,
2013-01-13 09:12:00,41.0,40.0,30.13,South,188,0.0,-999.0,97,-99.99,,,-99.99,,2013-01-13 14:12:00,
2013-01-13 09:22:00,41.0,40.0,30.11,South,187,2.0,-999.0,97,-99.99,,,-99.99,,2013-01-13 14:22:00,
2013-01-13 09:33:00,41.0,40.0,30.11,South,187,3.0,-999.0,97,-99.99,,,-99.99,,2013-01-13 14:33:00,
2013-01-13 09:43:00,41.0,40.0,30.11,South,187,3.0,-999.0,97,-99.99,,,-99.99,,2013-01-13 14:43:00,
2013-01-13 09:53:00,42.0,41.0,30.12,SW,226,0.0,-999.0,97,-99.99,,,-99.99,,2013-01-13 14:53:00,
2013-01-13 10:03:00,42.0,41.0,30.13,SW,216,7.0,-999.0,97,-99.99,,,-99.99,,2013-01-13 15:03:00,
2013-01-13 10:12:00,42.0,41.0,30.13,SW,216,7.0,-999.0,97,-99.99,,,-99.99,,2013-01-13 15:12:00,
2013-01-13 10:23:00,42.0,41.0,30.13,SW,214,1.0,-999.0,98,-99.99,,,-99.99,,2013-01-13 15:23:00,
2013-01-13 10:33:00,43.0,42.0,30.13,SSW,198,0.0,-999.0,97,-99.99,,,-99.99,,2013-01-13 15:33:00,
2013-01-13 10:43:00,43.0,42.0,30.13,SSW,198,0.0,-999.0,97,-99.99,,,-99.99,,2013-01-13 15:43:00,
2013-01-13 10:53:00,43.0,42.0,30.13,South,175,0.0,-999.0,98,-99.99,,,-99.99,,2013-01-13 15:53:00,
2013-01-13 11:03:00,43.0,42.0,30.13,SSW,209,0.0,-999.0,98,-99.99,,,-99.99,,2013-01-13 16:03:00,
2013-01-13 11:12:00,43.0,42.0,30.13,SSW,209,0.0,-999.0,98,-99.99,,,-99.99,,2013-01-13 16:12:00,
2013-01-13 11:23:00,43.0,42.0,30.12,South,183,0.0,-999.0,98,-99.99,,,-99.99,,2013-01-13 16:23:00,
2013-01-13 11:33:00,43.0,42.0,30.10,South,182,0.0,-999.0,97,-99.99,,,-99.99,,2013-01-13 16:33:00,
2013-01-13 11:43:00,43.0,42.0,30.10,South,182,0.0,-999.0,97,-99.99,,,-99.99,,2013-01-13 16:43:00,
2013-01-13 11:53:00,44.0,43.0,30.11,South,182,0.0,-999.0,97,-99.99,,,-99.99,,2013-01-13 16:53:00,
2013-01-13 12:03:00,44.0,43.0,30.10,South,183,0.0,-999.0,98,-99.99,,,-99.99,,2013-01-13 17:03:00,
2013-01-13 12:12:00,44.0,43.0,30.10,South,183,0.0,-999.0,98,-99.99,,,-99.99,,2013-01-13 17:12:00,
2013-01-13 12:22:00,44.0,43.0,30.10,SW,219,0.0,-999.0,97,-99.99,,,-99.99,,2013-01-13 17:22:00,
2013-01-13 12:33:00,45.0,44.0,30.09,SW,215,0.0,-999.0,98,-99.99,,,-99.99,,2013-01-13 17:33:00,
2013-01-13 12:42:00,45.0,44.0,30.09,SW,215,0.0,-999.0,98,-99.99,,,-99.99,,2013-01-13 17:42:00,
2013-01-13 12:53:00,45.0,44.0,30.08,South,186,1.0,-999.0,97,-99.99,,,-99.99,,2013-01-13 17:53:00,
2013-01-13 13:03:00,44.0,43.0,30.07,SSE,167,0.0,-999.0,98,-99.99,,,-99.99,,2013-01-13 18:03:00,
2013-01-13 13:12:00,44.0,43.0,30.07,SSE,167,0.0,-999.0,98,-99.99,,,-99.99,,2013-01-13 18:12:00,
2013-01-13 13:23:00,45.0,44.0,30.06,South,182,0.0,-999.0,98,-99.99,,,-99.99,,2013-01-13 18:23:00,
2013-01-13 13:33:00,45.0,44.0,30.06,SSE,168,0.0,-999.0,98,-99.99,,,-99.99,,2013-01-13 18:33:00,
2013-01-13 13:43:00,45.0,44.0,30.06,SSE,168,0.0,-999.0,98,-99.99,,,-99.99,,2013-01-13 18:43:00,
2013-01-13 13:53:00,46.0,45.0,30.08,South,181,0.0,-999.0,98,-99.99,,,-99.99,,2013-01-13 18:53:00,
2013-01-13 14:03:00,46.0,45.0,30.07,SSW,194,0.0,-999.0,98,-99.99,,,-99.99,,2013-01-13 19:03:00,
2013-01-13 14:12:00,46.0,45.0,30.07,SSW,194,0.0,-999.0,98,-99.99,,,-99.99,,2013-01-13 19:12:00,
2013-01-13 14:23:00,46.0,45.0,30.06,SSW,201,0.0,-999.0,98,-99.99,,,-99.99,,2013-01-13 19:23:00,
2013-01-13 14:33:00,46.0,45.0,30.06,SSW,209,0.0,-999.0,98,-99.99,,,-99.99,,2013-01-13 19:33:00,
2013-01-13 14:43:00,46.0,45.0,30.06,SSW,209,0.0,-999.0,98,-99.99,,,-99.99,,2013-01-13 19:43:00,
2013-01-13 14:53:00,47.0,46.0,30.04,SSW,196,0.0,-999.0,98,-99.99,,,-99.99,,2013-01-13 19:53:00,
2013-01-13 15:03:00,47.0,46.0,30.04,South,177,0.0,-999.0,98,-99.99,,,-99.99,,2013-01-13 20:03:00,
2013-01-13 15:12:00,47.0,46.0,30.04,South,177,0.0,-999.0,98,-99.99,,,-99.99,,2013-01-13 20:12:00,
2013-01-13 15:22:00,47.0,46.0,30.04,SW,222,0.0,-999.0,98,-99.99,,,-99.99,,2013-01-13 20:22:00,
2013-01-13 15:33:00,47.0,46.0,30.05,South,176,0.0,-999.0,98,-99.99,,,-99.99,,2013-01-13 20:33:00,
2013-01-13 15:43:00,47.0,46.0,30.05,South,176,0.0,-999.0,98,-99.99,,,-99.99,,2013-01-13 20:43:00,
2013-01-13 15:53:00,47.0,46.0,30.03,SSE,163,0.0,-999.0,98,-99.99,,,-99.99,,2013-01-13 20:53:00,
2013-01-13 16:03:00,47.0,46.0,30.04,SSE,167,1.0,-999.0,98,-99.99,,,-99.99,,2013-01-13 21:03:00,
2013-01-13 16:12:00,47.0,46.0,30.04,SSE,167,1.0,-999.0,98,-99.99,,,-99.99,,2013-01-13 21:12:00,
2013-01-13 16:23:00,47.0,46.0,30.04,SW,216,0.0,-999.0,98,-99.99,,,-99.99,,2013-01-13 21:23:00,
2013-01-13 16:33:00,47.0,46.0,30.05,SSW,210,1.0,-999.0,98,-99.99,,,-99.99,,2013-01-13 21:33:00,
2013-01-13 16:43:00,47.0,46.0,30.05,SSW,210,1.0,-999.0,98,-99.99,,,-99.99,,2013-01-13 21:43:00,
2013-01-13 16:53:00,47.0,46.0,30.03,SSW,204,0.0,-999.0,98,-99.99,,,-99.99,,2013-01-13 21:53:00,
2013-01-13 17:02:00,47.0,46.0,30.03,SW,226,0.0,-999.0,98,-99.99,,,-99.99,,2013-01-13 22:02:00,
2013-01-13 17:12:00,47.0,46.0,30.03,SW,226,0.0,-999.0,98,-99.99,,,-99.99,,2013-01-13 22:12:00,
2013-01-13 17:22:00,47.0,46.0,30.03,South,172,0.0,-999.0,98,-99.99,,,-99.99,,2013-01-13 22:22:00,
2013-01-13 17:33:00,47.0,46.0,30.04,South,188,0.0,-999.0,98,-99.99,,,-99.99,,2013-01-13 22:33:00,
2013-01-13 17:43:00,47.0,46.0,30.04,South,188,0.0,-999.0,98,-99.99,,,-99.99,,2013-01-13 22:43:00,
2013-01-13 17:53:00,47.0,46.0,30.03,SSE,162,0.0,-999.0,98,-99.99,,,-99.99,,2013-01-13 22:53:00,
2013-01-13 18:02:00,47.0,46.0,30.03,WSW,244,0.0,-999.0,98,-99.99,,,-99.99,,2013-01-13 23:02:00,
2013-01-13 18:12:00,47.0,46.0,30.03,WSW,244,0.0,-999.0,98,-99.99,,,-99.99,,2013-01-13 23:12:00,
2013-01-13 18:23:00,47.0,46.0,30.03,SW,219,0.0,-999.0,98,-99.99,,,-99.99,,2013-01-13 23:23:00,
2013-01-13 18:33:00,47.0,46.0,30.03,South,189,0.0,-999.0,98,-99.99,,,-99.99,,2013-01-13 23:33:00,
2013-01-13 18:42:00,47.0,46.0,30.03,South,189,0.0,-999.0,98,-99.99,,,-99.99,,2013-01-13 23:42:00,
2013-01-13 18:53:00,47.0,46.0,30.01,South,189,0.0,-999.0,98,-99.99,,,-99.99,,2013-01-13 23:53:00,
2013-01-13 19:03:00,47.0,46.0,30.02,SW,225,0.0,-999.0,98,-99.99,,,-99.99,,2013-01-14 00:03:00,
2013-01-13 19:12:00,47.0,46.0,30.02,SW,225,0.0,-999.0,98,-99.99,,,-99.99,,2013-01-14 00:12:00,
2013-01-13 19:22:00,47.0,46.0,30.02,SW,219,1.0,-999.0,98,-99.99,,,-99.99,,2013-01-14 00:22:00,
2013-01-13 19:33:00,47.0,46.0,30.03,SSW,208,1.0,-999.0,98,-99.99,,,-99.99,,2013-01-14 00:33:00,
2013-01-13 19:43:00,47.0,46.0,30.03,SSW,208,1.0,-999.0,98,-99.99,,,-99.99,,2013-01-14 00:43:00,
2013-01-13 19:53:00,47.0,46.0,30.03,SW,232,0.0,-999.0,98,-99.99,,,-99.99,,2013-01-14 00:53:00,
2013-01-13 20:03:00,47.0,46.0,30.02,SSW,207,0.0,-999.0,98,-99.99,,,-99.99,,2013-01-14 01:03:00,
2013-01-13 20:12:00,47.0,46.0,30.02,SSW,207,0.0,-999.0,98,-99.99,,,-99.99,,2013-01-14 01:12:00,
2013-01-13 20:22:00,47.0,46.0,30.04,WSW,246,0.0,-999.0,98,-99.99,,,-99.99,,2013-01-14 01:22:00,
2013-01-13 20:32:00,47.0,46.0,30.03,WSW,244,0.0,-999.0,98,-99.99,,,-99.99,,2013-01-14 01:32:00,
2013-01-13 20:42:00,47.0,46.0,30.03,WSW,244,0.0,-999.0,98,-99.99,,,-99.99,,2013-01-14 01:42:00,
2013-01-13 20:53:00,47.0,46.0,30.02,WSW,246,1.0,-999.0,98,-99.99,,,-99.99,,2013-01-14 01:53:00,
2013-01-13 21:03:00,47.0,46.0,30.03,SW,232,0.0,-999.0,98,-99.99,,,-99.99,,2013-01-14 02:03:00,
2013-01-13 21:12:00,47.0,46.0,30.02,SW,234,1.0,6.0,98,-99.99,,,-99.99,,2013-01-14 02:12:00,
2013-01-13 21:22:00,47.0,46.0,30.02,SW,234,1.0,6.0,98,-99.99,,,-99.99,,2013-01-14 02:22:00,
2013-01-13 21:33:00,47.0,46.0,30.02,South,169,1.0,4.0,98,-99.99,,,-99.99,,2013-01-14 02:33:00,
2013-01-13 21:42:00,47.0,46.0,30.02,South,169,1.0,4.0,98,-99.99,,,-99.99,,2013-01-14 02:42:00,
2013-01-13 21:53:00,47.0,46.0,30.01,SSW,212,0.0,4.0,98,-99.99,,,-99.99,,2013-01-14 02:53:00,
2013-01-13 22:03:00,47.0,46.0,30.01,SW,218,0.0,6.0,98,-99.99,,,-99.99,,2013-01-14 03:03:00,
2013-01-13 22:12:00,47.0,46.0,30.01,SW,218,0.0,6.0,98,-99.99,,,-99.99,,2013-01-14 03:12:00,
2013-01-13 22:22:00,47.0,46.0,30.01,WSW,248,0.0,7.0,98,0.00,,,-99.99,,2013-01-14 03:22:00,
2013-01-13 22:32:00,47.0,46.0,30.01,SSW,197,1.0,9.0,98,0.00,,,-99.99,,2013-01-14 03:32:00,
2013-01-13 22:42:00,47.0,46.0,30.01,SSW,197,1.0,9.0,98,0.00,,,-99.99,,2013-01-14 03:42:00,
2013-01-13 22:53:00,47.0,46.0,30.01,SW,219,0.0,7.0,98,0.00,,,-99.99,,2013-01-14 03:53:00,
2013-01-13 23:02:00,48.0,47.0,30.00,WSW,244,0.0,5.0,98,0.00,,,-99.99,,2013-01-14 04:02:00,
2013-01-13 23:12:00,48.0,47.0,30.00,WSW,244,0.0,5.0,98,0.00,,,-99.99,,2013-01-14 04:12:00,
2013-01-13 23:22:00,48.0,47.0,30.00,SSW,201,0.0,5.0,98,0.00,,,-99.99,,2013-01-14 04:22:00,
2013-01-13 23:32:00,48.0,47.0,29.99,South,185,0.0,7.0,98,0.00,,,-99.99,,2013-01-14 04:32:00,
2013-01-13 23:42:00,48.0,47.0,29.99,South,185,0.0,7.0,98,0.00,,,-99.99,,2013-01-14 04:42:00,
2013-01-13 23:53:00,47.0,46.0,30.00,SSW,196,0.0,2.0,98,0.00,,,-99.99,,2013-01-14 04:53:00,